EW5064 Weather Reports


time (UTC)temp
F
wind
direction
speed
knots
gust
knots
rain 1hr
in
rain 24hr
in
rain mn
in
humidity
%
barometer
mb
20260506044918 64 314 2.6 5.2 0.00 0.00 0.00 36 1014.2
20260506043758 63 302 3.5 5.2 0.00 0.00 0.00 39 1014.0
20260506042522 63 308 0.9 1.7 0.00 0.00 0.00 39 1014.0
20260506041338 63 293 0.9 1.7 0.00 0.00 0.00 43 1013.8
20260506040118 63 251 2.6 3.5 0.00 0.00 0.00 48 1013.7
20260506034919 64 0.0 0.0 0.00 0.00 0.00 49 1013.8
20260506033721 65 293 1.7 1.7 0.00 0.00 0.00 49 1013.3
20260506032604 65 300 4.3 5.2 0.00 0.00 0.00 48 1013.4
20260506031323 66 301 5.2 7.0 0.00 0.00 0.00 47 1013.2
20260506030154 67 313 7.0 8.7 0.00 0.00 0.00 46 1013.0
20260506024923 67 321 5.2 7.0 0.00 0.00 0.00 45 1013.0
20260506023723 68 303 7.0 8.7 0.00 0.00 0.00 44 1013.1
20260506022518 68 296 7.8 10.4 0.00 0.00 0.00 43 1012.7
20260506021325 68 303 6.1 8.7 0.00 0.00 0.00 43 1012.8
20260506020218 68 291 7.0 8.7 0.00 0.00 0.00 42 1012.8
20260506014918 69 306 7.0 10.4 0.00 0.00 0.00 42 1012.7
20260506013718 69 290 7.0 10.4 0.00 0.00 0.00 42 1012.6
20260506012518 70 305 8.7 12.2 0.00 0.00 0.00 42 1012.5
20260506011323 70 305 9.6 12.2 0.00 0.00 0.00 41 1012.5
20260506010138 71 298 7.0 10.4 0.00 0.00 0.00 39 1012.7
20260506004918 71 313 11.3 15.6 0.00 0.00 0.00 38 1012.4
20260506003718 73 10 7.8 12.2 0.00 0.00 0.00 35 1012.2
20260506002518 72 21 5.2 10.4 0.00 0.00 0.00 35 1012.2
20260506001317 72 35 5.2 7.0 0.00 0.00 0.00 34 1012.1
20260506000118 73 15 1.7 3.5 0.00 0.00 0.00 33 1012.1
20260505234923 75 33 7.0 8.7 0.00 0.00 0.00 31 1012.0
20260505233718 74 6 0.9 3.5 0.00 0.00 0.00 31 1012.0
20260505232538 74 60 1.7 5.2 0.00 0.00 0.00 31 1011.9
20260505231323 73 333 5.2 7.0 0.00 0.00 0.00 31 1011.9
20260505230118 74 11 7.0 10.4 0.00 0.00 0.00 31 1012.2
20260505224934 74 315 9.6 15.6 0.00 0.00 0.00 31 1012.2
20260505223724 75 42 7.8 13.9 0.00 0.00 0.00 30 1012.1
20260505222518 75 66 5.2 8.7 0.00 0.00 0.00 30 1012.3
20260505221318 74 46 2.6 5.2 0.00 0.00 0.00 31 1012.2
20260505220123 75 32 4.3 7.0 0.00 0.00 0.00 31 1012.3
20260505214923 74 114 4.3 10.4 0.00 0.00 0.00 31 1012.4
20260505213717 74 43 8.7 12.2 0.00 0.00 0.00 31 1012.6
20260505212523 73 358 5.2 8.7 0.00 0.00 0.00 32 1012.6
20260505211318 73 329 10.4 15.6 0.00 0.00 0.00 32 1012.6
20260505210118 72 352 7.0 12.2 0.00 0.00 0.00 33 1012.6
20260505204919 73 298 7.8 12.2 0.00 0.00 0.00 33 1012.5
20260505203718 72 33 7.0 10.4 0.00 0.00 0.00 33 1012.6
20260505202517 72 356 5.2 8.7 0.00 0.00 0.00 34 1012.7
20260505201318 71 352 4.3 10.4 0.00 0.00 0.00 36 1012.7
20260505200123 71 311 8.7 15.6 0.00 0.00 0.00 36 1012.8
20260505194923 70 349 6.1 10.4 0.00 0.00 0.00 38 1012.9
20260505193723 70 73 7.0 13.9 0.00 0.00 0.00 38 1012.8
20260505192544 70 353 5.2 8.7 0.00 0.00 0.00 39 1012.9
20260505191323 69 343 7.0 10.4 0.00 0.00 0.00 40 1012.9
20260505190143 68 24 2.6 7.0 0.00 0.00 0.00 41 1012.9
20260505184918 68 335 5.2 8.7 0.00 0.00 0.00 41 1013.1
20260505183735 67 337 6.1 8.7 0.00 0.00 0.00 41 1012.9
20260505182524 67 13 5.2 8.7 0.00 0.00 0.00 41 1012.9
20260505181343 66 50 1.7 7.0 0.00 0.00 0.00 42 1012.8
20260505180119 65 14 2.6 5.2 0.00 0.00 0.00 41 1013.0
20260505174918 64 324 1.7 5.2 0.00 0.00 0.00 43 1013.0
20260505173718 63 160 1.7 3.5 0.00 0.00 0.00 44 1012.9
20260505172523 62 332 2.6 3.5 0.00 0.00 0.00 46 1012.9
20260505171328 61 17 3.5 5.2 0.00 0.00 0.00 46 1012.8
20260505170123 60 353 2.6 5.2 0.00 0.00 0.00 48 1012.8
20260505164923 60 358 0.0 1.7 0.00 0.00 0.00 49 1013.0
20260505163717 59 331 3.5 5.2 0.00 0.00 0.00 51 1012.9
20260505162523 58 340 1.7 3.5 0.00 0.00 0.00 51 1013.1
20260505161318 57 4 0.0 1.7 0.00 0.00 0.00 54 1012.7
20260505160118 56 344 0.0 1.7 0.00 0.00 0.00 56 1012.8
20260505152523 52 0.0 0.0 0.00 0.00 0.00 61 1012.8
20260505151318 53 0.0 0.0 0.00 0.00 0.00 61 1012.6
20260505150123 53 330 0.9 3.5 0.00 0.00 0.00 59 1012.6
20260505140117 50 94 1.7 3.5 0.00 0.00 0.00 62 1011.7
20260505130213 51 65 1.7 3.5 0.00 0.00 0.00 61 1011.4
20260505124939 51 59 1.7 1.7 0.00 0.00 0.00 61 1011.3
20260505123718 52 80 2.6 3.5 0.00 0.00 0.00 60 1011.3
20260505122542 52 0.0 0.0 0.00 0.00 0.00 59 1011.2
20260505121323 52 18 0.9 1.7 0.00 0.00 0.00 58 1011.2
20260505120123 52 46 1.7 3.5 0.00 0.00 0.00 56 1011.2
20260505115012 52 27 0.9 1.7 0.00 0.00 0.00 56 1011.1
20260505113723 51 65 1.7 3.5 0.00 0.00 0.00 56 1011.1
20260505112523 51 159 2.6 3.5 0.00 0.00 0.00 57 1011.1
20260505111323 50 163 3.5 3.5 0.00 0.00 0.00 58 1011.0
20260505110159 51 154 3.5 5.2 0.00 0.00 0.00 57 1011.1
20260505101318 51 55 0.9 1.7 0.00 0.00 0.00 59 1011.0
20260505100118 52 48 1.7 3.5 0.00 0.00 0.00 60 1010.8
20260505094923 52 45 1.7 1.7 0.00 0.00 0.00 59 1010.9
20260505093723 52 113 1.7 3.5 0.00 0.00 0.00 58 1011.0
20260505092538 53 158 2.6 3.5 0.00 0.00 0.00 57 1010.9
20260505091318 53 149 3.5 3.5 0.00 0.00 0.00 55 1011.0
20260505090134 53 144 2.6 5.2 0.00 0.00 0.00 55 1010.9
20260505084918 53 135 2.6 5.2 0.00 0.00 0.00 57 1011.0
20260505083718 53 72 0.9 1.7 0.00 0.00 0.00 56 1010.9
20260505082518 53 13 0.0 1.7 0.00 0.00 0.00 56 1010.9
20260505081323 54 265 1.7 1.7 0.00 0.00 0.00 51 1010.8
20260505080129 54 0.0 0.0 0.00 0.00 0.00 46 1010.8
20260505074918 55 0.0 0.0 0.00 0.00 0.00 45 1011.0
20260505073717 55 10 0.9 1.7 0.00 0.00 0.00 45 1011.0
20260505072543 56 277 0.9 3.5 0.00 0.00 0.00 45 1010.9
20260505071317 56 324 1.7 3.5 0.00 0.00 0.00 45 1010.8
20260505070122 57 349 1.7 3.5 0.00 0.00 0.00 43 1010.6
20260505064921 57 333 3.5 5.2 0.00 0.00 0.00 43 1010.5
20260505063723 57 326 5.2 7.0 0.00 0.00 0.00 43 1010.2
20260505062523 57 5 3.5 5.2 0.00 0.00 0.00 44 1010.5
20260505061318 58 351 3.5 7.0 0.00 0.00 0.00 43 1010.2
20260505060118 58 335 5.2 10.4 0.00 0.00 0.00 42 1010.6
20260505054917 58 346 3.5 3.5 0.00 0.00 0.00 43 1010.3
20260505053722 59 345 3.5 7.0 0.00 0.00 0.00 42 1010.4
20260505052523 59 333 3.5 7.0 0.00 0.00 0.00 42 1010.4
20260505051317 59 335 4.3 7.0 0.00 0.00 0.00 42 1010.5
20260505050123 60 322 5.2 7.0 0.00 0.00 0.00 42 1010.4